STARLINK-1887 (47170 NORAD) Tracking and Keplerian Element Data

This shows tracking and keplerian element data for the satellite.

Feedback or suggestion? Click here.




ElementValue
Catalog47170
NameSTARLINK-1887
Epoch Orbit1574
Epoch Day60.91667824
Epoch Year2021
RAAN253.7326
Inclination53.0537
Eccentricity0.0002365
Argument of Perigee91.7143
Mean Anonmoly154.2435
Mean Motion15.06385625
Decay Rate0.00029448
L11 47170U 20088BA 21060.91667824 .00029448 00000-0 19883-2 0 9997
L22 47170 53.0537 253.7326 0002365 91.7143 154.2435 15.06385625 15745

Live tracking and technical data element details for STARLINK-1887 (NORAD 47170). STARLINK-1887 can be tracked NOW for your location showing map with azimuth and elevation plus other details from your city location.

Track the satellite on the map from your city or location and see movement details for azimuth, elevation, latitude, longitude, range, height, and movement on the map or in text.







IsCatalogInMostPopularTable: catalog: 47170, numindb: 39
Update: records affected: 1



GetName: 47170 STARLINK-1887

Hit Count: updated at: Tue, 02 Mar 2021 14:57:21 GMT